Orange, MA

3:33 PM EST on December 17, 2017 (GMT -0500)
Orange Municipal

Weather History for KORE - March, 2012

Change the Weather History Date:

Saturday, March 17, 2012

  Actual Average Record
Temperature  
Mean Temperature 44 °F -  
Max Temperature 54 °F 38 °F 64 °F (2003)
Min Temperature 35 °F 20 °F 3 °F (1997)
Degree Days  
Heating Degree Days 20    
Moisture  
Dew Point 39 °F    
Average Humidity 92    
Maximum Humidity 100    
Minimum Humidity 62    
Precipitation  
Precipitation 0.00 in - - ()
Sea Level Pressure  
Sea Level Pressure 30.29 in    
Wind  
Wind Speed 1 mph (West)    
Max Wind Speed 8 mph    
Max Gust Speed -    
Visibility 5 miles    
Events Fog    
Averages and records for this station are not official NWS values.
T = Trace of Precipitation, MM = Missing Value Source: NWS Daily Summary

Daily Weather History Graph

Daily Weather History Graph

Search for Another Location

Airport or City:

Trip Planner

Search our weather history database for the weather conditions in past years. The results will help you decide how hot, cold, wet, or windy it might be!

Date:

Astronomy

Mar. 17, 2012 Rise Set
Actual Time 6:56 AM EDT 6:58 PM EDT
Civil Twilight 6:28 AM EDT 7:26 PM EDT
Nautical Twilight 5:56 AM EDT 7:59 PM EDT
Astronomical Twilight 5:22 AM EDT 8:32 PM EDT
Moon 4:02 AM EDT 2:13 PM EDT
Length of Visible Light 12h 57m
Length of Day
12h 01m
Waning Crescent, 23% of the Moon is Illuminated
Mar 17
Waning Crescent
Mar 22
New
Mar 30
First Quarter
Apr 6
Full
Apr 13
Last Quarter

Hourly Weather History & Observations

Time (EDT) Temp. Windchill Dew Point Humidity Pressure Visibility Wind Dir Wind Speed Gust Speed Precip Events Conditions
12:12 AM 42.8 °F 41.1 °F 42.8 °F 100% 30.17 in 5.0 mi NW 3.5 mph - N/A   Overcast
12:41 AM 42.8 °F - 42.8 °F 100% 30.18 in 7.0 mi Calm Calm - N/A   Overcast
12:52 AM 43.0 °F - 42.1 °F 97% 30.20 in 7.0 mi Calm Calm - N/A   Overcast
1:19 AM 42.8 °F - 42.8 °F 100% 30.18 in 5.0 mi Calm Calm - N/A   Overcast
1:52 AM 42.1 °F - 41.0 °F 96% 30.20 in 6.0 mi Calm Calm - N/A   Overcast
2:09 AM 39.2 °F - 39.2 °F 100% 30.18 in 1.2 mi Calm Calm - N/A   Mostly Cloudy
2:11 AM 39.2 °F - 39.2 °F 100% 30.19 in 0.8 mi Calm Calm - N/A   Mist
2:33 AM 37.4 °F - 37.4 °F 100% 30.19 in 0.2 mi Calm Calm - N/A Fog Fog
2:52 AM 37.9 °F - 37.9 °F 100% 30.22 in 0.2 mi Calm Calm - N/A Fog Fog
3:07 AM 37.4 °F - 37.4 °F 100% 30.20 in 0.8 mi Calm Calm - N/A   Overcast
3:27 AM 37.4 °F - 37.4 °F 100% 30.20 in 0.2 mi Calm Calm - N/A Fog Fog
3:36 AM 37.4 °F - 37.4 °F 100% 30.21 in 0.5 mi Calm Calm - N/A Fog Fog
3:45 AM 37.4 °F - 37.4 °F 100% 30.21 in 0.5 mi Calm Calm - N/A Fog Fog
3:52 AM 37.9 °F - 37.9 °F 100% 30.23 in 0.8 mi Calm Calm - N/A   Overcast
3:57 AM 37.4 °F - 37.4 °F 100% 30.22 in 1.2 mi Calm Calm - N/A   Overcast
4:04 AM 37.4 °F - 37.4 °F 100% 30.22 in 2.0 mi Calm Calm - N/A   Overcast
4:16 AM 39.2 °F - 39.2 °F 100% 30.22 in 4.0 mi Calm Calm - N/A   Overcast
4:52 AM 39.0 °F - 39.0 °F 100% 30.25 in 5.0 mi Calm Calm - N/A   Overcast
5:52 AM 39.9 °F - 39.9 °F 100% 30.26 in 4.0 mi Calm Calm - N/A   Overcast
6:52 AM 43.0 °F 41.3 °F 41.0 °F 93% 30.29 in 10.0 mi North 3.5 mph - N/A   Overcast
7:52 AM 44.1 °F 41.5 °F 41.0 °F 89% 30.32 in 10.0 mi North 4.6 mph - N/A   Overcast
8:52 AM 44.1 °F 40.8 °F 41.0 °F 89% 30.34 in 10.0 mi NNW 5.8 mph - N/A   Overcast
9:52 AM 45.0 °F 41.8 °F 41.0 °F 86% 30.36 in 10.0 mi NW 5.8 mph - N/A   Overcast
10:50 AM 46.4 °F 42.9 °F 41.0 °F 81% 30.35 in 10.0 mi WNW 6.9 mph - N/A   Overcast
10:52 AM 46.0 °F 42.5 °F 41.0 °F 83% 30.37 in 10.0 mi WNW 6.9 mph - N/A   Overcast
11:05 AM 46.4 °F 42.4 °F 41.0 °F 81% 30.35 in 10.0 mi WNW 8.1 mph - N/A   Overcast
11:52 AM 46.0 °F - 39.9 °F 79% 30.37 in 10.0 mi Calm Calm - N/A   Overcast
12:52 PM 46.9 °F - 41.0 °F 80% 30.37 in 10.0 mi Calm Calm - N/A   Overcast
1:52 PM 48.9 °F - 41.0 °F 74% 30.35 in 10.0 mi Calm Calm - N/A   Overcast
2:52 PM 52.0 °F - 42.1 °F 69% 30.33 in 10.0 mi Variable 3.5 mph - N/A   Overcast
3:24 PM 51.8 °F - 41.0 °F 67% 30.31 in 10.0 mi SSW 8.1 mph - N/A   Scattered Clouds
3:52 PM 52.0 °F - 41.0 °F 66% 30.33 in 10.0 mi Calm Calm - N/A   Clear
4:52 PM 54.0 °F - 41.0 °F 62% 30.32 in 10.0 mi SSW 8.1 mph - N/A   Clear
5:52 PM 54.0 °F - 42.1 °F 64% 30.32 in 10.0 mi South 3.5 mph - N/A   Clear
6:52 PM 48.9 °F - 42.1 °F 77% 30.32 in 10.0 mi South 3.5 mph - N/A   Clear
7:52 PM 44.1 °F - 41.0 °F 89% 30.34 in 10.0 mi Calm Calm - N/A   Clear
8:52 PM 41.0 °F - 39.0 °F 93% 30.35 in 9.0 mi Calm Calm - N/A   Clear
9:13 PM 39.2 °F - 39.2 °F 100% 30.33 in 1.8 mi Calm Calm - N/A   Clear
9:22 PM 39.2 °F - 39.2 °F 100% 30.33 in 3.0 mi Calm Calm - N/A   Clear
9:52 PM 37.9 °F - 37.9 °F 100% 30.35 in 4.0 mi Calm Calm - N/A   Clear
10:16 PM 35.6 °F - 35.6 °F 100% 30.33 in 1.0 mi Calm Calm - N/A   Clear
10:23 PM 35.6 °F - 35.6 °F 100% 30.33 in 1.5 mi Calm Calm - N/A   Partly Cloudy
10:30 PM 37.4 °F - 37.4 °F 100% 30.33 in 0.8 mi Calm Calm - N/A   Mist
10:38 PM 37.4 °F - 35.6 °F 93% 30.33 in 1.2 mi Calm Calm - N/A   Mostly Cloudy
10:40 PM 37.4 °F 34.9 °F 35.6 °F 93% 30.33 in 2.0 mi SSW 3.5 mph - N/A   Mostly Cloudy
10:47 PM 36.0 °F - 36.0 °F 100% 30.35 in 8.0 mi Calm Calm - N/A   Scattered Clouds
11:16 PM 35.6 °F - 35.6 °F 100% 30.33 in 3.0 mi Calm Calm - N/A   Mostly Cloudy
11:20 PM 35.6 °F - 35.6 °F 100% 30.33 in 1.8 mi Calm Calm - N/A   Mostly Cloudy
11:23 PM 35.6 °F - 35.6 °F 100% 30.33 in 1.0 mi Calm Calm - N/A   Mostly Cloudy
11:31 PM 35.6 °F - 35.6 °F 100% 30.33 in 0.5 mi Calm Calm - N/A Fog Fog
11:52 PM 36.0 °F - 36.0 °F 100% 30.35 in 0.2 mi Calm Calm - N/A Fog Fog